Theta_e
347 350 351 349 358 357 363 365 354 355 357 352 351 354 354 356 357 348 345 346 345 348 349 349 351 349 347 347 347 346 344 343 346 347 350 343 348 350 349 350 347 343 343 349 350 350 351 351 352
351 353 352 348 357 362 364 361 359 356 355 350 351 352 354 357 351 345 347 346 345 347 348 350 350 350 352 346 346 345 344 348 347 345 342 346 350 349 353 352 351 348 342 350 350 350 349 349 346
351 352 351 354 355 366 364 360 358 355 352 353 354 352 352 356 346 345 347 345 346 348 349 351 349 350 353 352 348 345 345 346 345 344 342 342 350 352 352 352 351 347 343 342 350 349 348 347 341
351 351 348 358 362 363 361 360 357 354 353 352 352 357 351 350 344 347 346 343 345 348 348 351 350 352 352 353 350 351 351 349 344 342 343 341 350 352 352 352 351 345 343 344 347 344 345 346 342
347 347 354 356 361 359 360 359 356 356 357 356 354 359 355 350 350 348 345 343 342 347 348 352 350 351 351 353 353 349 353 353 345 342 341 343 352 352 353 352 351 350 348 346 348 344 347 343 342
345 345 353 356 358 360 359 358 356 357 356 356 357 357 354 349 349 347 345 342 337 341 346 350 351 351 351 352 353 352 353 348 342 335 344 348 347 350 353 352 352 351 351 349 346 344 346 344 343
344 349 352 355 356 364 361 356 356 356 356 353 354 358 351 350 348 347 345 342 339 340 346 350 351 352 353 353 351 353 353 347 344 339 337 346 333 345 347 350 352 350 350 350 349 345 346 346 344
345 346 352 352 355 355 359 358 354 355 358 351 351 357 354 348 349 347 346 344 342 344 347 347 350 350 350 350 353 352 350 349 347 345 342 341 334 332 343 341 348 349 350 350 350 348 347 347 345
339 343 349 352 355 354 358 359 357 354 354 354 352 352 348 350 349 348 348 348 347 349 349 346 349 348 350 351 351 352 352 347 347 347 342 343 338 338 340 339 342 349 345 347 349 351 351 344 347
340 342 346 345 349 355 357 352 359 359 357 358 355 350 349 349 349 350 350 350 350 351 350 350 350 350 351 351 351 351 352 350 346 345 346 345 340 343 343 340 342 346 344 343 347 351 350 350 347
340 341 342 343 346 354 357 354 357 357 359 354 355 351 349 350 350 350 350 350 350 351 351 351 351 352 352 351 350 352 351 349 348 347 346 343 343 343 342 340 339 341 345 340 347 347 347 348 347
341 339 342 342 347 352 357 355 356 354 352 351 350 349 348 350 350 350 350 350 351 350 348 349 350 351 350 350 349 350 349 349 349 348 348 346 347 343 342 342 340 341 338 337 346 347 346 348 346
335 336 339 341 342 344 350 355 354 355 349 349 350 349 350 350 350 350 350 350 350 349 348 348 349 348 349 349 347 349 349 348 348 346 344 344 344 343 345 343 341 337 335 344 345 344 344 343 341
330 331 336 339 342 341 348 348 349 349 350 350 351 351 350 350 350 350 350 350 350 349 348 347 346 346 347 348 348 348 350 347 347 345 345 345 344 344 346 345 343 342 344 343 343 344 345 346 346
330 331 331 333 339 340 342 343 344 349 349 349 351 351 350 350 351 350 350 350 350 349 347 346 345 347 348 349 349 348 346 347 347 346 346 346 346 344 345 345 346 344 344 344 344 346 346 345 345
329 330 333 334 335 335 338 339 332 350 351 349 347 349 351 350 350 351 351 350 350 350 348 347 345 344 346 346 347 347 345 347 346 347 347 348 348 345 345 346 345 345 346 345 345 345 346 345 346
325 330 331 335 334 334 334 336 331 349 350 350 348 343 344 349 349 350 351 351 351 351 350 349 348 344 346 348 348 348 348 346 347 348 347 349 348 345 345 346 345 346 345 345 345 345 345 342 344
328 327 327 328 330 333 333 333 329 351 351 351 348 345 342 342 347 349 350 351 351 351 350 351 351 349 349 350 349 348 348 348 348 345 347 348 348 347 345 346 346 347 343 345 346 346 345 345 343
326 325 326 325 325 333 332 330 330 332 352 351 349 347 343 341 341 348 350 350 350 350 350 351 352 351 351 350 350 349 349 347 347 349 348 347 348 347 345 346 347 345 346 347 348 348 346 343 343
324 325 324 323 325 327 327 327 327 326 344 351 350 350 348 345 344 345 349 349 350 351 350 351 351 352 352 351 350 350 349 348 347 348 347 348 348 347 347 347 347 346 346 348 347 348 347 346 347
322 323 322 323 323 325 326 325 327 326 328 331 342 344 348 348 347 347 347 348 350 351 350 348 351 352 352 352 351 350 349 348 347 348 347 348 348 347 347 347 347 347 347 346 347 348 348 346 346
322 320 322 326 323 325 323 325 325 326 330 330 335 337 339 345 346 344 345 347 350 350 351 349 350 351 351 351 350 349 349 348 348 347 347 348 348 347 347 347 347 346 345 342 343 348 348 347 346
322 323 325 324 323 323 324 324 324 327 329 329 330 336 336 339 342 343 345 348 349 350 350 350 350 351 351 351 351 349 349 349 349 347 347 347 347 346 346 347 346 344 341 340 344 347 347 348 346
322 324 321 321 320 325 323 325 327 340 337 332 334 343 339 338 341 343 345 347 348 349 350 350 350 350 351 351 351 350 350 350 348 346 345 346 346 346 346 347 345 343 343 343 345 347 348 348 348
320 320 323 327 326 327 320 329 332 338 342 341 346 346 337 342 340 344 345 346 348 348 349 349 349 349 349 350 350 350 350 350 349 348 347 345 344 345 346 345 343 341 344 345 347 347 348 347 348
323 321 323 330 327 326 323 332 331 343 342 343 346 344 343 343 345 346 347 348 348 349 349 349 346 337 339 349 350 350 350 351 350 349 348 346 347 345 344 345 345 341 341 346 347 348 348 347 348
324 324 320 321 321 325 325 332 333 344 345 346 348 347 347 348 347 346 347 347 336 348 350 350 343 343 340 347 349 350 350 350 350 349 349 349 348 347 346 345 344 340 342 346 346 347 347 347 348
323 321 324 321 330 332 328 331 331 348 348 346 349 351 348 347 343 338 339 338 341 345 348 350 350 350 348 348 349 350 350 350 350 349 350 350 348 347 345 344 344 341 346 347 347 345 348 346 349
322 323 318 318 322 329 331 331 328 346 346 346 346 347 349 348 344 343 341 341 343 344 348 350 351 352 350 350 350 350 350 351 350 347 351 349 348 347 346 344 343 343 347 347 348 347 347 346 348
321 322 318 321 323 323 326 329 331 343 342 340 340 346 347 344 340 339 339 338 337 339 341 339 343 353 353 353 352 351 351 350 349 349 349 350 348 347 347 346 346 346 347 348 348 348 348 343 345
Wind_Speed
4 1 2 2 4 6 2 4 2 3 3 2 6 2 4 2 1 2 9 14 30 27 23 24 22 22 23 25 27 28 27 26 27 26 24 27 24 21 19 17 17 17 16 16 16 15 14 14 13
7 1 2 3 5 4 3 4 3 2 5 7 6 3 4 3 4 7 12 24 31 28 26 23 21 21 21 24 25 26 24 24 27 26 24 23 23 21 18 16 16 15 15 14 14 13 13 12 11
7 7 3 4 3 2 1 3 3 6 4 3 2 5 3 2 7 16 11 34 31 28 26 23 22 21 20 21 23 25 24 23 22 21 20 21 20 18 16 16 15 14 14 13 12 11 11 10 9
4 4 4 5 2 2 3 2 4 1 5 6 3 5 4 3 13 12 30 34 31 27 25 21 21 20 20 20 21 21 20 20 20 19 16 18 18 17 15 14 13 12 11 11 10 8 8 7 6
3 3 5 3 2 3 3 3 6 3 3 4 2 3 4 2 10 25 32 32 31 27 24 20 21 21 20 19 19 20 19 19 20 18 16 15 15 14 13 13 11 10 9 8 7 5 4 4 3
4 3 4 2 1 3 5 4 2 3 1 1 5 4 3 15 25 29 33 32 29 29 25 22 20 19 19 18 17 18 19 19 18 18 17 13 11 11 11 11 10 9 7 5 4 4 3 3 2
5 3 1 3 2 3 4 4 1 2 4 2 4 4 2 5 23 25 29 29 28 27 25 23 21 19 18 18 19 17 17 18 18 18 19 16 19 9 7 9 9 8 6 4 3 2 1 1 1
4 3 1 2 2 1 4 5 7 3 2 3 2 5 5 7 21 25 24 27 28 27 25 25 22 22 20 20 18 18 18 17 16 17 19 18 22 25 9 8 9 7 6 4 2 2 2 2 2
3 4 1 3 4 4 5 4 3 4 4 2 2 2 6 27 25 24 21 21 24 25 25 26 25 24 22 20 19 17 18 18 16 15 16 18 16 18 17 14 12 8 7 5 4 4 4 3 2
3 3 5 4 6 6 6 5 7 4 2 1 3 3 26 27 26 22 20 19 21 25 28 27 26 25 23 22 20 19 18 18 18 17 18 17 17 19 20 18 14 11 9 7 7 6 6 4 4
2 3 5 3 5 10 7 3 3 8 4 8 8 13 17 22 18 18 16 19 22 22 24 29 27 26 25 25 23 21 20 18 16 15 16 14 15 17 18 17 15 16 12 11 9 8 6 6 5
3 5 4 4 5 5 3 3 5 6 5 3 12 18 16 15 14 18 20 23 26 29 30 30 28 26 25 24 24 22 22 19 17 16 15 15 14 14 15 18 18 17 16 12 10 8 7 7 6
2 2 3 5 4 4 5 6 3 8 2 12 15 17 17 16 18 20 22 21 28 27 30 31 30 28 26 24 23 22 22 20 17 16 15 14 14 12 10 10 12 15 14 12 9 9 8 7 7
4 5 4 6 5 1 5 2 3 4 10 13 17 19 17 18 20 17 19 22 28 28 30 31 30 28 26 26 24 24 23 20 18 16 16 14 14 12 10 9 11 13 11 10 9 8 8 6 8
3 4 5 5 4 5 5 5 9 4 12 16 16 15 15 16 22 26 30 30 32 29 29 30 30 28 26 27 25 24 23 21 19 18 16 15 14 14 12 10 9 10 10 9 10 9 10 11 9
3 4 5 4 5 3 8 11 6 9 11 12 14 13 14 17 26 27 28 27 25 25 30 27 30 29 28 28 27 25 23 21 20 18 16 15 14 15 14 12 10 9 11 11 11 13 13 12 10
7 1 4 7 4 3 3 9 5 9 11 11 13 13 13 13 16 26 26 26 28 28 29 28 28 29 31 29 26 22 21 21 19 15 17 16 15 15 16 14 12 11 11 12 11 11 12 11 10
6 6 3 5 5 4 3 14 7 7 11 12 12 11 13 15 20 25 27 26 27 29 28 26 27 31 31 27 26 22 19 21 18 18 18 17 16 16 18 16 14 11 12 12 12 12 11 10 9
3 3 5 5 8 3 6 7 17 7 9 9 11 13 15 18 16 20 24 20 25 24 20 26 28 30 28 28 24 21 22 23 19 24 21 18 17 15 18 17 13 12 13 13 13 11 11 8 9
4 4 7 7 5 3 3 9 12 3 9 17 15 14 17 12 11 17 22 26 24 23 30 30 32 33 31 28 26 22 22 22 20 21 19 21 21 18 18 19 17 14 13 12 12 12 9 9 9
3 5 4 6 5 3 4 8 5 4 3 6 9 10 12 16 16 14 18 25 23 29 32 25 32 34 33 30 26 22 19 18 18 21 21 21 21 20 19 19 18 17 16 12 12 13 14 10 11
3 6 4 3 4 2 3 4 5 6 4 4 3 6 7 10 9 11 14 19 28 34 37 29 32 33 33 30 28 29 27 23 24 24 21 19 22 21 20 19 19 19 19 17 15 14 16 14 12
9 2 1 2 2 2 4 3 7 7 8 9 6 7 9 9 12 13 14 23 23 24 30 28 29 32 30 30 29 30 29 27 22 23 22 21 20 19 20 20 18 18 18 18 15 14 15 18 11
2 1 5 4 3 3 3 3 5 5 7 8 6 6 4 6 8 8 14 16 19 20 20 24 30 30 30 29 30 31 31 28 22 21 20 25 25 23 23 24 21 20 19 19 18 15 14 16 15
6 6 4 5 5 4 2 3 7 8 9 6 9 9 5 8 9 10 9 11 10 11 16 15 9 3 15 27 30 32 32 30 27 23 22 22 24 27 29 27 24 19 18 18 17 16 16 17 17
3 6 5 2 1 5 3 1 5 5 9 9 6 4 7 10 9 11 10 17 11 19 20 18 17 24 31 27 32 33 33 31 28 25 23 24 25 26 30 31 23 20 19 18 17 15 17 16 17
3 4 4 6 3 2 2 3 4 5 7 7 5 8 10 11 11 11 9 20 24 23 31 30 31 19 26 34 33 35 33 32 30 27 25 26 24 24 19 23 25 20 19 19 17 16 16 17 17
7 4 4 4 1 3 5 4 5 2 3 7 6 6 6 8 9 7 8 16 3 7 12 24 27 31 34 36 34 37 30 30 31 29 26 26 24 19 14 16 22 19 19 18 17 16 15 17 15
4 3 6 5 3 4 2 5 5 7 3 5 6 2 5 7 6 4 7 6 13 14 12 7 17 21 24 28 29 30 28 28 27 31 24 23 20 15 15 15 18 18 19 19 18 16 13 15 13
2 3 4 5 3 1 3 5 2 5 2 6 7 7 6 4 5 3 7 14 18 14 9 11 9 6 14 18 22 28 26 26 28 28 23 19 15 15 17 15 17 19 20 20 18 16 15 18 15
Wind_Direction
30 25 316 121 59 63 2 335 317 93 130 180 144 168 161 73 147 198 157 155 149 145 143 149 147 145 145 144 146 151 153 156 157 150 147 151 144 141 142 135 126 119 116 109 105 105 104 103 107
33 4 25 65 83 81 299 300 90 88 111 101 103 109 58 89 75 120 139 160 151 147 149 149 150 146 146 148 147 149 151 152 155 152 150 150 147 146 143 135 128 127 122 113 106 109 105 105 110
9 15 68 78 79 101 49 302 53 137 141 125 101 58 76 96 106 147 159 156 153 149 151 147 154 150 146 149 151 152 157 156 155 156 159 156 149 144 144 136 133 133 126 119 112 111 106 104 104
347 16 39 69 80 213 204 301 308 148 62 76 111 65 73 122 146 171 155 158 155 151 151 150 155 151 150 148 152 155 157 157 156 162 161 159 151 149 147 141 140 140 133 128 124 115 110 105 97
53 45 56 64 333 293 276 231 213 323 53 42 68 86 75 31 142 150 155 160 157 156 155 159 156 156 155 156 154 155 157 160 165 165 168 168 153 152 149 148 147 147 143 136 131 119 109 101 108
42 81 62 93 216 317 288 257 175 103 114 85 76 90 123 141 137 152 160 163 163 160 162 164 165 159 158 162 163 159 157 164 165 169 170 172 160 162 157 156 155 156 156 145 139 129 125 116 130
113 88 246 133 158 151 243 171 177 152 138 69 118 82 60 152 150 155 163 165 166 164 169 170 171 169 169 168 168 170 165 168 174 172 173 169 183 192 193 166 165 166 164 155 172 166 165 178 144
122 90 34 335 144 242 200 154 136 141 78 119 118 168 177 169 149 156 163 167 169 170 176 176 178 176 178 178 177 179 180 176 180 178 178 187 191 206 224 211 190 191 186 191 221 247 233 219 204
93 63 150 212 157 221 179 163 123 77 114 96 99 131 152 148 148 146 153 164 173 178 184 186 185 184 185 185 187 189 190 191 188 182 182 179 198 191 215 219 212 204 205 211 241 256 254 238 202
103 114 217 209 180 191 207 184 137 118 155 257 101 72 137 147 151 152 164 171 182 188 190 192 191 191 190 191 192 192 200 202 197 198 195 198 195 197 206 214 219 225 228 244 259 249 241 246 225
191 190 179 241 205 172 203 84 129 124 220 216 173 150 149 151 159 163 173 182 190 193 195 198 196 195 193 193 189 196 203 207 200 201 202 204 202 207 213 216 224 226 229 245 258 252 238 228 236
330 276 205 201 186 151 185 131 155 184 230 183 153 157 154 165 172 174 182 187 192 199 201 201 199 200 199 199 196 197 204 209 210 206 207 204 207 215 221 230 234 225 226 250 253 245 238 236 239
223 274 234 247 203 181 136 226 196 228 237 121 140 160 168 173 181 192 194 194 200 202 204 204 201 204 203 206 203 202 206 211 214 213 211 208 209 211 213 220 213 209 230 239 238 241 242 242 243
306 291 267 255 218 212 173 207 168 245 125 142 156 176 175 181 184 187 198 200 205 206 209 208 206 206 208 210 212 211 211 213 214 217 214 212 214 214 221 216 216 221 232 234 230 238 239 250 258
293 307 325 253 222 213 137 283 227 171 151 155 174 180 183 188 184 196 200 207 205 209 211 212 208 211 213 216 218 220 221 216 216 217 218 219 218 218 225 230 222 220 231 230 231 241 243 255 269
34 46 5 286 160 248 126 260 262 162 160 171 180 185 192 194 199 201 204 212 215 210 208 211 210 211 218 221 220 223 225 224 224 219 223 224 223 220 224 229 229 233 244 242 242 242 249 259 265
8 319 310 314 223 102 171 264 288 166 175 179 191 191 199 206 208 208 205 205 212 214 211 215 210 213 218 221 222 225 226 228 230 237 229 230 227 221 224 231 236 241 244 246 244 242 249 263 258
319 338 314 258 287 167 206 271 256 184 186 191 194 193 203 207 216 205 206 203 207 210 214 217 211 216 221 222 223 224 222 227 225 229 237 232 231 226 228 237 249 239 239 238 238 241 247 260 257
246 213 252 258 267 189 245 267 276 195 212 200 195 196 205 213 211 207 208 203 196 199 206 216 212 216 219 214 215 222 219 227 238 233 232 234 228 226 226 228 230 229 234 244 247 243 246 252 237
214 250 278 294 254 123 312 270 266 211 220 215 204 203 210 209 194 198 199 203 185 175 220 210 215 217 218 220 217 220 225 230 240 236 235 231 230 227 226 229 226 227 236 244 233 228 229 236 220
206 197 247 232 338 14 355 307 318 321 293 245 226 219 215 207 194 192 196 192 169 186 218 223 215 218 218 222 214 215 227 239 238 234 238 236 230 228 229 230 227 227 227 234 232 234 234 232 209
300 209 244 275 56 278 48 275 307 337 15 31 181 218 241 229 193 189 189 184 182 195 202 214 212 218 219 220 214 211 215 221 234 234 236 234 232 233 230 233 235 234 235 238 245 244 245 227 212
230 359 73 33 114 62 1 66 279 353 356 346 348 202 208 202 185 188 188 192 180 190 200 209 216 215 219 219 221 217 219 228 240 237 234 232 235 237 234 228 230 233 235 239 243 242 236 234 215
72 64 45 59 72 33 302 109 308 339 298 299 326 330 319 170 146 146 161 168 168 183 189 203 211 212 216 223 225 225 227 226 228 234 237 237 236 236 229 226 223 235 244 241 238 236 239 239 234
75 52 351 6 10 229 352 68 243 296 317 305 318 309 65 132 133 140 126 98 124 151 191 181 170 249 250 233 230 232 233 234 232 234 236 240 238 236 234 227 226 235 237 235 236 232 239 233 233
87 129 145 220 261 277 302 17 271 319 321 315 323 310 71 79 79 88 110 114 141 193 194 185 153 223 241 250 238 238 237 237 239 239 240 242 245 246 244 238 229 235 239 236 230 226 237 231 234
163 55 165 103 8 44 269 309 323 349 337 341 22 70 85 99 137 146 155 177 198 180 188 191 188 199 239 239 238 240 241 242 243 245 247 248 250 256 245 232 226 234 228 226 227 234 238 233 234
102 158 44 14 170 289 305 269 228 201 283 319 30 73 105 144 155 175 201 218 319 23 195 198 212 218 216 236 239 233 235 246 249 251 250 254 258 258 231 224 221 232 223 222 227 230 232 232 225
358 24 61 111 121 173 226 270 213 185 245 327 337 51 169 190 196 191 241 34 39 47 50 172 207 223 231 233 235 243 240 242 252 259 250 253 263 240 224 224 222 226 223 223 228 229 231 219 224
122 129 105 112 261 44 141 279 318 166 336 330 315 343 322 233 265 336 11 37 38 32 26 17 356 258 240 244 248 253 251 246 254 252 242 244 251 233 226 227 218 219 227 225 230 233 230 220 230